GFSNIL_925_temp_009.txt.gz
Temp
13 13 12 11 10 9 9 9 9 9 9 8 8 7 7 6 5 5 4 4 3 3
12 11 10 9 9 9 8 8 9 8 8 7 7 5 4 4 4 4 3 3 3 3
11 10 9 8 8 8 8 7 7 7 6 5 3 3 3 3 3 3 3 4 4 4
10 9 9 8 8 7 5 6 5 5 4 4 3 3 2 3 3 3 3 4 4 5
10 9 9 8 6 5 5 5 4 4 3 3 3 2 2 2 3 4 4 4 4 4
9 8 7 6 5 5 5 5 5 5 4 4 4 4 4 4 4 4 3 3 3 3
8 7 6 6 5 5 5 5 4 4 4 4 4 3 3 3 2 2 3 3 3 2
7 7 6 5 5 5 4 4 4 4 3 3 3 2 1 0 0 0 1 1 2 2
7 5 5 5 5 4 4 4 3 3 3 2 2 0 -1 -2 -2 -2 -1 -0 1 1
6 5 5 5 5 4 4 3 3 3 2 2 1 -1 -2 -3 -3 -3 -2 -1 -1 -0
6 5 5 5 4 4 3 3 3 2 1 1 0 -1 -4 -5 -4 -3 -3 -2 -2 -2
5 4 4 4 4 3 3 3 2 1 0 -1 -2 -3 -5 -5 -5 -5 -4 -4 -3 -3
5 4 4 4 3 3 3 3 1 -0 -1 -3 -3 -3 -4 -5 -5 -6 -5 -5 -4 -4
4 4 4 3 3 3 3 1 -1 -2 -2 -3 -3 -3 -4 -6 -6 -6 -6 -5 -5 -4

GFSNIL_925_temp_012.txt.gz
Temp
12 11 11 9 9 9 8 8 8 8 8 7 6 6 5 5 5 4 4 4 4 4
11 11 10 9 9 8 8 7 6 6 6 5 5 5 4 4 4 4 3 3 3 3
11 10 9 9 9 7 6 6 6 6 5 4 4 3 3 3 2 3 3 3 3 2
11 10 10 9 7 6 5 5 5 5 5 4 4 3 3 3 3 3 3 3 3 2
11 10 9 8 7 6 5 5 5 5 5 5 4 4 4 4 4 4 3 3 3 3
10 8 7 7 6 6 5 5 5 5 4 4 4 4 3 3 3 1 1 1 1 2
9 8 7 7 6 6 5 5 4 4 4 3 3 3 2 1 1 0 -0 -0 -0 -0
9 8 7 6 5 5 5 4 4 4 3 3 3 2 1 -0 -1 -1 -1 -2 -1 -1
7 7 6 5 5 5 5 4 4 3 3 2 2 0 -1 -2 -3 -3 -3 -3 -3 -2
5 4 5 5 5 4 4 4 3 3 2 1 1 -1 -2 -3 -4 -4 -4 -4 -3 -3
5 5 6 5 5 4 4 3 3 3 2 0 -1 -1 -2 -3 -4 -4 -5 -5 -5 -4
5 5 5 5 4 4 3 3 2 1 0 -1 -2 -2 -3 -4 -5 -5 -5 -5 -5 -5
3 4 4 3 4 3 3 2 1 -0 -2 -2 -2 -3 -4 -5 -6 -6 -6 -6 -6 -5
1 1 3 4 3 3 3 2 -0 -1 -2 -2 -2 -3 -4 -6 -6 -7 -7 -7 -6 -6

GFSNIL_925_temp_015.txt.gz
Temp
11 11 10 9 9 8 7 7 6 6 5 5 4 4 4 4 3 3 3 3 3 3
11 10 10 9 8 7 6 6 6 5 5 5 5 4 4 4 3 3 3 3 3 2
11 10 10 8 7 7 6 6 5 5 5 5 4 4 4 3 3 3 3 3 3 3
11 10 9 8 7 7 6 6 5 5 5 4 4 4 4 3 3 2 2 1 1 1
10 9 9 8 7 7 6 5 5 5 4 4 4 3 3 3 2 1 1 0 0 -0
9 8 7 7 7 6 5 5 5 4 4 3 3 3 2 2 1 0 -0 -1 -1 -1
8 7 6 6 6 5 5 5 4 4 3 3 3 2 2 1 -0 -1 -2 -2 -3 -3
8 7 6 5 4 2 5 5 4 4 3 3 2 1 0 -1 -2 -2 -3 -3 -4 -4
7 6 4 4 2 4 4 4 4 3 3 2 1 -0 -1 -2 -2 -3 -4 -4 -4 -5
5 4 4 3 3 4 4 4 3 3 2 1 0 -1 -2 -2 -3 -4 -4 -5 -5 -5
4 4 3 2 2 3 3 3 2 1 1 -0 -1 -2 -3 -3 -4 -5 -5 -5 -5 -6
3 2 2 1 3 1 3 2 2 1 -0 -1 -2 -3 -4 -4 -5 -6 -6 -6 -6 -6
3 2 2 2 2 3 3 1 0 -1 -2 -2 -3 -4 -5 -5 -7 -7 -7 -7 -7 -7
3 2 2 2 3 3 1 -0 -1 -2 -3 -3 -4 -5 -6 -7 -7 -8 -8 -8 -8 -8

GFSNIL_925_temp_018.txt.gz
Temp
11 11 10 10 9 8 7 7 6 6 5 5 5 4 4 4 3 3 3 3 3 3
11 10 10 9 9 8 7 7 6 5 5 5 4 4 4 3 3 3 3 2 2 2
11 10 10 9 8 7 7 6 5 5 5 4 4 4 3 3 3 3 2 1 1 1
11 10 9 8 7 7 6 5 5 5 4 4 4 3 3 3 2 1 1 1 -0 -0
10 9 8 7 7 6 5 5 5 4 4 4 3 3 3 2 2 1 -0 -1 -1 -2
9 9 8 7 6 5 4 4 3 4 4 4 3 3 2 1 0 -1 -1 -2 -2 -3
8 7 7 6 5 4 3 3 3 3 3 3 3 2 1 0 -0 -1 -2 -3 -3 -4
6 6 6 5 4 3 3 3 2 3 3 3 2 1 0 -1 -2 -2 -3 -3 -4 -4
5 5 5 4 3 3 2 3 3 3 3 1 1 -0 -1 -2 -3 -3 -4 -5 -5 -5
4 4 3 3 2 1 1 2 2 2 1 0 -1 -2 -3 -3 -4 -5 -5 -5 -6 -6
4 3 3 2 1 1 1 1 1 1 -1 -1 -2 -3 -4 -5 -5 -6 -6 -7 -7 -7
3 3 2 1 1 1 1 1 0 -1 -2 -2 -3 -5 -5 -6 -6 -7 -7 -7 -8 -7
2 2 2 2 2 2 1 1 -1 -2 -3 -3 -5 -5 -6 -6 -7 -8 -8 -8 -8 -8
2 1 2 2 2 1 0 -1 -2 -3 -4 -5 -5 -6 -7 -7 -8 -8 -8 -9 -9 -8

GFSNIL_925_temp_021.txt.gz
Temp
12 11 11 11 10 10 9 8 6 6 6 5 4 4 4 3 3 3 3 2 2 2
11 11 10 10 9 9 7 6 6 6 5 4 4 4 4 3 3 3 2 2 1 1
10 9 9 9 9 8 7 6 5 4 3 4 4 4 3 3 3 2 2 1 1 0
10 9 9 9 8 6 6 6 5 4 4 4 4 3 3 3 2 2 1 0 -1 -1
9 8 7 7 6 6 6 5 4 3 3 3 3 3 3 2 1 1 -0 -1 -2 -2
8 8 7 7 7 6 6 5 4 3 2 3 3 3 2 1 1 -0 -1 -2 -3 -3
7 6 6 5 5 5 4 3 3 3 3 2 2 2 1 0 -1 -2 -2 -3 -4 -4
6 5 4 4 4 3 2 2 2 2 2 2 2 1 0 -1 -2 -3 -3 -4 -4 -5
5 4 4 4 3 2 2 1 2 1 2 1 -0 -1 -2 -3 -3 -4 -5 -5 -6 -6
4 3 3 3 2 1 0 0 1 1 0 -1 -1 -2 -3 -4 -5 -5 -6 -7 -7 -7
3 3 2 2 1 1 1 0 0 -0 -1 -2 -3 -4 -5 -5 -6 -7 -7 -8 -8 -8
3 2 2 1 1 1 1 0 -0 -1 -2 -3 -4 -5 -6 -6 -7 -8 -8 -8 -8 -8
2 1 1 1 1 1 1 -0 -2 -2 -3 -4 -5 -6 -7 -7 -8 -8 -9 -8 -8 -8
1 1 1 1 1 1 -0 -1 -2 -3 -4 -5 -6 -6 -7 -7 -8 -8 -8 -9 -9 -9

GFSNIL_925_temp_024.txt.gz
Temp
12 11 11 11 10 10 9 8 7 6 6 5 5 4 4 4 3 3 3 3 2 2
10 10 9 9 9 8 8 7 6 6 5 5 4 4 4 3 3 3 3 2 2 1
9 9 9 9 8 8 7 6 6 6 5 4 4 3 3 3 3 2 2 1 0 -0
9 9 8 8 7 7 7 6 6 5 3 3 2 1 3 3 2 2 1 0 -1 -1
8 8 7 6 6 6 6 6 4 3 3 3 2 2 2 2 1 1 -0 -1 -2 -2
7 7 6 6 5 5 5 4 3 2 2 2 2 2 2 1 0 -1 -1 -2 -3 -3
7 6 5 5 4 4 3 3 2 2 2 1 1 1 1 -0 -1 -2 -2 -3 -4 -4
5 5 4 4 3 3 2 2 1 1 1 1 1 1 -0 -1 -2 -3 -4 -5 -5 -6
5 5 4 3 2 2 1 0 0 -1 1 1 -0 -1 -2 -3 -4 -4 -5 -6 -7 -7
4 3 3 2 1 1 1 -0 0 0 -1 -1 -2 -2 -3 -5 -5 -6 -7 -8 -8 -8
3 2 2 1 1 1 0 0 -0 -1 -2 -2 -3 -4 -5 -6 -6 -7 -8 -8 -8 -9
2 2 1 1 1 1 1 0 -1 -2 -2 -3 -4 -5 -5 -7 -7 -8 -8 -8 -8 -8
2 1 1 1 1 1 0 -0 -2 -2 -3 -4 -4 -5 -7 -7 -7 -8 -8 -8 -9 -9
2 1 0 0 0 0 -1 -1 -2 -3 -3 -4 -5 -6 -7 -7 -7 -8 -8 -9 -9 -9

GFSNIL_925_temp_027.txt.gz
Temp
11 11 10 9 9 9 8 8 7 7 6 6 6 4 3 3 3 2 2 2 2 2
10 9 9 9 9 8 7 7 6 6 6 5 4 3 4 3 2 2 2 2 2 1
9 9 8 8 8 7 7 7 6 6 4 3 3 3 3 2 2 2 2 1 0 0
9 8 8 7 7 6 6 5 5 4 3 3 3 3 2 1 2 2 1 0 -1 -1
8 8 7 6 6 5 4 4 3 3 3 2 2 2 1 1 1 1 -0 -1 -1 -1
8 7 6 5 5 3 3 2 2 1 2 1 1 1 1 1 1 -1 -1 -2 -2 -2
6 5 5 4 3 2 2 1 1 1 1 1 0 1 1 -0 -2 -2 -2 -3 -3 -4
5 5 4 4 3 2 1 1 1 0 0 0 -0 -1 -1 -2 -2 -3 -3 -4 -5 -5
5 4 4 3 2 1 1 1 0 -0 -0 -1 -2 -2 -2 -2 -3 -4 -4 -5 -5 -6
4 4 3 2 1 1 0 0 0 -0 -1 -2 -3 -2 -3 -4 -4 -5 -5 -6 -6 -6
4 3 2 1 1 1 0 -0 -0 -1 -2 -3 -3 -3 -4 -5 -5 -6 -6 -6 -7 -7
3 2 1 1 0 -0 -0 -0 -1 -2 -3 -3 -4 -4 -5 -5 -6 -6 -7 -7 -7 -7
2 1 0 0 -0 -0 -1 -1 -2 -3 -3 -3 -4 -4 -5 -6 -6 -7 -7 -7 -7 -8
1 1 0 0 -1 -0 -1 -2 -3 -3 -3 -4 -4 -5 -6 -7 -7 -7 -7 -7 -8 -8

GFSNIL_925_temp_030.txt.gz
Temp
12 12 12 11 10 10 10 9 8 8 7 7 7 7 6 6 5 5 5 4 4 4
11 11 10 10 9 9 8 8 8 7 7 7 7 6 6 5 5 4 4 4 3 3
10 10 9 9 8 8 8 7 7 7 7 6 6 6 5 5 5 4 4 4 3 3
10 9 9 8 8 7 7 6 6 5 5 5 5 5 5 4 4 4 3 3 3 2
9 9 8 8 7 6 6 5 5 4 4 5 4 4 3 3 3 3 3 3 2 2
10 9 8 7 6 6 5 4 4 4 4 3 3 3 3 2 2 2 2 1 1 1
9 8 7 6 6 5 4 4 4 4 2 2 2 2 2 2 1 1 1 1 -0 -1
8 7 6 5 5 4 3 3 3 3 2 1 1 1 1 1 1 1 0 -0 -1 -2
7 6 6 5 4 4 3 3 3 2 2 1 1 -1 -1 -1 -0 -0 -1 -1 -2 -2
6 5 5 4 4 4 3 3 3 2 2 1 1 -2 -2 -2 -2 -2 -2 -2 -3 -3
5 5 5 4 4 3 3 3 3 2 1 1 -0 -2 -3 -3 -2 -2 -3 -3 -3 -3
5 4 4 4 3 3 3 3 3 2 1 0 -0 -3 -4 -4 -3 -3 -3 -4 -4 -5
4 4 4 3 2 2 2 2 2 1 0 -1 -1 -3 -4 -5 -4 -4 -4 -4 -4 -5
4 3 3 2 2 2 2 1 1 -1 -1 -1 -2 -3 -4 -5 -5 -4 -5 -4 -4 -5

GFSNIL_925_temp_033.txt.gz
Temp
14 14 14 13 12 12 11 11 10 9 9 9 8 8 8 8 7 7 6 5 5 5
13 12 12 12 11 11 10 10 9 9 8 8 8 8 8 8 7 6 5 5 5 4
12 12 12 11 10 10 9 9 8 8 7 7 7 7 7 7 6 5 4 4 4 4
11 11 11 10 10 9 8 8 7 7 7 7 7 7 6 5 5 5 4 4 4 3
11 11 11 10 9 9 8 7 7 6 6 6 6 5 4 4 4 4 3 3 3 3
12 11 11 10 9 8 7 7 6 6 6 5 5 4 4 3 3 3 2 2 2 3
12 11 10 9 8 7 7 6 6 6 6 5 4 4 3 3 3 2 2 2 2 1
11 10 9 8 7 7 6 6 5 5 5 4 3 3 2 2 2 2 2 2 1 1
10 9 8 8 7 6 6 6 5 5 4 4 3 1 1 -0 0 1 1 1 0 -0
9 8 8 7 7 6 6 5 5 5 4 3 2 0 -0 -1 -2 -0 0 -0 -1 -1
8 7 7 7 6 6 5 5 5 4 3 2 2 -0 -1 -2 -2 -0 -0 -1 -1 -1
8 7 7 6 6 6 5 4 4 4 3 2 2 0 -1 -2 -2 -1 -1 -1 -2 -2
7 6 6 6 5 5 4 4 4 3 3 2 1 -1 -1 -2 -3 -2 -2 -2 -2 -3
6 6 6 5 4 4 4 4 3 2 1 1 0 -0 -2 -3 -4 -3 -3 -3 -3 -3

GFSNIL_925_temp_036.txt.gz
Temp
15 14 14 14 13 12 12 11 10 10 9 9 8 8 8 8 8 8 7 6 5 4
14 13 13 12 12 11 11 10 10 9 8 8 7 7 7 7 7 7 6 5 4 4
13 12 12 11 11 10 10 9 8 8 8 7 7 7 7 6 6 5 5 4 4 4
12 11 11 11 11 10 9 8 8 7 7 7 7 6 5 5 5 4 4 4 3 3
11 11 11 11 10 10 9 8 7 7 7 6 6 5 5 4 4 4 3 3 3 2
11 11 11 11 10 9 8 8 7 6 6 6 5 5 4 4 3 3 3 2 2 2
11 11 11 10 10 9 8 7 6 6 6 6 4 4 3 3 3 2 2 2 2 2
11 11 10 9 9 8 7 6 6 6 6 5 4 3 3 2 2 1 1 1 1 1
11 10 9 9 8 7 7 6 6 6 5 5 4 3 2 2 1 0 0 0 0 0
10 9 9 8 7 7 7 6 5 5 5 4 3 2 1 1 0 -0 -0 0 -0 -1
9 9 8 7 6 7 6 6 5 5 4 4 3 2 1 0 -0 -1 -1 -1 -1 -1
8 7 6 7 6 6 6 5 5 4 4 3 3 1 0 -0 -1 -2 -2 -2 -2 -2
6 5 6 6 6 6 5 5 4 4 3 3 2 0 -0 -1 -2 -2 -3 -2 -2 -2
4 5 6 6 5 5 4 4 4 3 2 2 1 0 -1 -1 -2 -2 -3 -4 -4 -3

GFSNIL_925_temp_039.txt.gz
Temp
15 15 14 14 13 13 12 11 11 10 9 9 8 8 7 7 7 7 6 6 5 5
15 14 14 13 12 12 11 10 10 9 8 8 7 7 7 6 6 5 5 5 4 4
14 13 13 12 11 11 10 10 9 8 8 7 7 7 6 6 5 4 4 4 4 3
13 12 12 11 11 10 9 9 8 7 7 7 6 6 5 5 4 4 3 3 3 3
12 11 11 11 10 9 9 9 8 7 7 6 6 6 5 4 4 3 3 3 2 2
12 11 10 10 9 9 9 8 7 7 6 6 6 5 4 4 3 3 2 2 2 2
11 11 10 9 8 9 8 7 7 6 6 6 5 5 4 3 3 2 2 2 1 1
10 9 9 9 8 8 8 7 7 6 6 6 5 4 4 3 3 2 2 1 1 0
10 8 8 8 8 8 7 7 6 6 6 5 4 4 4 3 2 1 1 0 -0 -0
9 8 7 7 7 7 6 6 6 6 5 5 4 4 3 2 1 1 0 -0 -1 -1
6 7 6 6 6 6 6 6 6 5 5 4 4 3 3 1 1 0 -0 -1 -1 -2
6 5 5 5 5 4 4 5 5 5 4 4 4 3 2 1 -0 -1 -1 -2 -2 -2
4 5 5 4 4 5 5 5 4 4 4 3 3 2 1 0 -1 -1 -2 -2 -3 -3
5 5 3 4 4 4 4 4 4 3 3 3 3 2 1 0 -1 -1 -2 -3 -3 -4

GFSNIL_925_temp_042.txt.gz
Temp
16 15 15 14 13 12 11 10 10 9 9 8 8 7 7 7 6 6 5 5 5 4
14 14 14 13 12 11 10 9 8 8 8 8 7 7 7 6 5 5 5 4 4 4
14 13 12 11 11 10 9 9 8 7 7 7 7 7 6 6 5 5 4 3 3 3
13 12 12 11 10 10 9 8 7 6 7 7 7 6 6 5 5 4 3 3 3 2
12 12 11 11 10 9 8 8 8 7 7 7 6 6 5 5 4 4 3 2 2 2
12 11 11 10 9 9 9 8 7 7 7 6 6 6 5 5 4 3 3 2 2 1
11 11 10 10 9 8 8 8 7 7 6 6 6 5 5 4 4 3 2 2 2 1
10 9 9 8 8 8 7 7 7 6 6 6 6 5 5 4 4 3 2 2 1 1
9 9 9 8 7 7 7 6 6 6 6 6 5 5 5 4 3 2 2 1 1 0
8 7 7 6 5 4 5 6 5 6 5 5 5 5 4 3 3 2 1 0 -0 -1
6 5 4 3 4 4 4 5 5 5 5 5 5 4 4 3 2 1 0 -0 -1 -1
4 3 4 4 4 4 4 4 4 5 5 4 4 4 4 2 1 0 -0 -1 -2 -2
5 4 4 3 3 4 4 4 4 4 4 3 3 3 3 2 1 0 -0 -1 -2 -2
3 3 3 3 3 4 4 4 3 3 3 3 3 2 2 2 1 0 -1 -1 -2 -2

GFSNIL_925_temp_048.txt.gz
Temp
14 13 13 13 13 13 12 10 9 9 8 8 8 7 6 7 7 6 6 5 5 5
13 13 13 12 13 12 11 10 9 8 9 8 7 7 7 7 6 6 5 5 4 4
14 13 13 12 12 11 11 11 9 8 7 7 7 7 7 7 6 5 5 5 4 3
14 13 12 11 12 11 9 8 7 7 7 7 6 7 7 6 5 5 5 4 3 3
12 11 10 10 9 8 8 8 7 6 6 6 7 6 6 5 5 5 4 4 3 3
10 10 9 8 8 8 8 7 6 7 7 6 6 5 4 5 5 4 4 4 3 3
8 8 9 9 9 8 8 7 7 6 6 5 4 4 5 5 5 5 4 4 3 3
8 8 8 8 7 7 7 6 5 5 4 3 3 4 5 5 5 5 4 4 3 2
8 8 7 6 5 5 5 5 5 4 3 3 3 4 5 4 4 4 4 3 3 2
6 5 5 5 5 5 5 5 4 3 3 3 4 4 5 5 4 4 4 3 3 1
5 5 5 5 5 4 3 3 3 3 3 4 4 4 4 4 4 3 3 3 2 1
5 4 4 4 3 3 3 3 3 3 3 3 3 3 3 3 3 3 3 3 2 1
4 4 4 3 3 3 3 3 3 3 3 3 3 3 2 2 2 2 2 2 1 1
4 3 3 3 3 3 2 2 2 2 2 2 2 2 2 2 2 2 1 1 1 1

GFSNIL_925_temp_051.txt.gz
Temp
15 12 13 13 13 13 11 11 11 11 11 10 9 7 8 7 6 6 6 6 5 5
13 12 12 12 13 12 11 10 11 10 9 8 7 7 7 6 6 6 6 5 5 4
12 12 12 12 12 11 10 10 9 7 6 6 7 6 6 6 6 6 6 5 4 4
13 12 12 12 10 10 9 8 6 6 7 7 6 5 6 6 5 5 5 5 4 4
13 12 11 10 9 8 8 7 7 7 6 6 6 6 5 5 5 4 4 4 3 3
10 9 8 8 8 8 7 7 7 6 6 5 5 5 4 4 4 4 4 4 3 3
7 7 8 7 7 6 6 6 6 5 5 5 5 4 4 4 4 4 4 4 4 3
7 7 7 7 7 6 6 6 5 5 5 5 4 4 3 3 3 3 4 4 4 3
7 7 6 6 5 5 4 3 4 4 4 4 4 3 3 3 3 3 3 3 3 3
6 5 5 5 4 4 4 4 4 3 3 2 3 3 4 4 3 2 3 3 3 2
5 5 5 5 4 4 4 3 3 2 2 2 3 3 3 3 3 2 2 2 2 2
5 4 4 4 4 3 3 2 2 2 2 2 2 3 3 2 2 1 2 1 2 1
4 4 4 4 3 3 2 2 2 2 2 2 2 2 2 2 1 0 1 1 1 2
3 3 3 2 2 1 1 1 1 1 1 1 1 1 1 1 0 -1 -0 0 0 -0

GFSNIL_925_temp_054.txt.gz
Temp
15 15 15 15 14 13 12 11 10 10 10 10 9 9 7 7 7 6 6 6 7 8
14 14 14 14 13 12 12 11 10 9 9 8 7 7 7 7 6 5 5 6 6 7
14 14 14 13 12 11 12 11 10 10 8 6 6 7 6 5 5 4 5 5 7 7
15 15 13 12 11 11 11 10 9 8 6 5 6 5 5 4 4 4 5 7 6 6
14 12 12 11 10 10 10 9 7 6 6 6 6 5 4 4 4 5 7 7 6 6
11 10 10 9 9 9 8 7 6 6 6 6 5 4 5 4 4 6 6 6 6 6
9 9 8 8 7 6 6 6 5 6 6 5 5 5 4 4 5 5 6 6 5 6
7 7 7 7 7 6 5 5 6 5 4 5 5 3 3 3 3 5 5 5 5 5
7 6 6 6 6 5 5 5 5 5 5 4 3 3 3 3 4 4 5 6 6 6
7 6 6 5 5 5 5 5 4 4 4 3 3 3 3 3 3 4 5 5 5 5
6 6 6 5 4 4 4 4 4 4 4 5 5 4 3 3 2 3 4 4 4 4
6 5 5 5 5 4 5 5 5 5 4 4 4 3 2 2 2 3 3 3 4 4
6 4 4 5 5 5 4 4 4 4 4 3 3 3 1 0 0 1 2 2 2 2
4 4 4 4 4 4 4 3 3 2 2 2 1 1 -0 -2 -2 -1 -1 -1 -0 0

GFSNIL_925_temp_057.txt.gz
Temp
19 18 18 18 18 17 16 15 13 11 11 10 9 11 11 10 9 7 8 7 7 7
17 18 17 17 17 16 15 13 12 10 10 9 10 9 9 7 7 7 6 6 6 6
18 16 16 15 15 14 13 11 10 10 9 10 9 7 6 6 5 5 5 5 5 6
16 15 15 14 14 13 11 10 9 9 9 8 6 5 5 6 5 5 4 5 5 6
16 15 14 13 13 12 11 10 9 8 7 6 6 6 5 5 5 4 4 5 6 7
13 13 12 12 11 10 9 8 6 6 6 5 5 4 4 5 5 4 4 5 6 7
10 10 9 9 8 7 6 6 6 5 5 5 4 5 5 4 4 4 5 5 5 6
8 8 7 7 6 6 5 5 5 4 4 5 5 5 4 4 3 4 4 5 5 7
9 9 9 8 8 7 6 5 5 5 5 5 4 4 3 3 3 4 5 6 6 7
10 9 8 8 8 7 6 6 5 5 4 4 3 4 4 3 3 4 5 5 6 6
9 9 8 7 7 6 6 6 5 5 5 4 6 5 4 3 3 4 4 5 5 5
8 7 8 7 7 6 6 6 7 7 6 6 6 4 3 2 2 2 3 3 3 4
8 8 7 7 7 7 7 6 6 6 5 5 4 2 1 0 0 -0 0 1 1 0
7 7 7 6 6 6 6 5 4 4 3 3 2 1 -0 -2 -2 -2 -3 -3 -2 -2

GFSNIL_925_temp_060.txt.gz
Temp
20 20 19 18 18 18 15 14 14 14 13 13 13 12 11 10 9 9 8 7 7 7
20 18 19 18 18 18 17 15 14 13 13 12 11 10 9 9 10 8 7 6 7 6
18 18 19 18 17 16 16 14 13 13 12 11 10 9 9 8 7 6 6 7 6 6
18 18 17 15 16 15 14 13 13 12 10 9 8 8 8 6 6 6 6 6 6 6
18 17 15 15 14 13 13 12 11 10 9 8 7 7 6 6 6 5 6 6 5 5
14 15 14 13 13 12 11 10 9 8 7 7 6 6 5 5 5 5 5 5 5 5
12 12 11 10 10 9 9 8 7 6 6 6 5 5 5 5 5 4 4 4 5 5
10 9 9 8 7 7 6 6 6 5 5 5 5 5 5 4 4 3 4 5 5 5
9 8 7 7 6 6 5 5 5 5 5 5 5 4 4 3 3 4 4 5 5 5
10 9 8 8 7 6 6 5 5 5 5 5 4 4 4 3 3 3 4 4 4 5
9 9 9 8 7 6 6 5 5 5 5 5 5 4 3 3 3 3 3 3 2 2
9 8 8 7 7 6 6 6 6 6 6 5 3 3 3 2 1 1 0 -0 0 -0
8 8 7 7 7 7 7 7 7 6 5 4 2 2 1 1 -1 -2 -2 -2 -2 -2
8 8 8 7 7 7 7 6 4 3 3 3 2 0 -0 -1 -2 -4 -4 -4 -4 -4